Regional Weather Roundup
Issued by NWS Wakefield, VA

Home | Current Version | Previous Version | Text Only | Print | Product List | Glossary Off
Versions: 1 2 3 4 5 6 7 8 9 10 11 12 13 14 15 16 17 18 19 20 21 22 23 24 25 26 27 28 29 30 31 32 33 34 35 36 37 38 39 40 41 42 43 44 45 46 47 48

000
ASUS41 KAKQ 301410
RWRAKQ

REGIONAL WEATHER ROUNDUP
NATIONAL WEATHER SERVICE WAKEFIELD VA
1000 AM EDT TUE SEP 30 2014

Note: "fair" indicates few or no clouds below 12,000 feet with no
significant weather and/or obstructions to visibility. * = Denotes
station may not report precipitation (e.g., rain,snow,etc.),
thunder or fog.

VAZ042-051-052>054-056-301500-
NORTHERN VIRGINIA

CITY           SKY/WX    TMP DP  RH WIND       PRES   REMARKS
WASH NATIONAL  CLOUDY    68  62  81 S6        29.94F
DULLES         CLOUDY    63  61  93 CALM      29.95S FOG
FORT BELVOIR   CLOUDY    64  62  95 SE3       29.95S
QUANTICO       CLOUDY    65  61  87 SE6       29.95S
FREDERICKSBRG* CLOUDY    67  65  93 CALM      29.93S
STAFFORD*      CLOUDY    66  66 100 E5        29.98S
WARRENTON      CLOUDY    65  65 100 CALM      29.94R
CULPEPER*      CLOUDY    66  63  88 CALM      29.95S
MANASSAS*      CLOUDY    64  64 100 SE3       29.94S
LEESBURG*      CLOUDY    64  63  94 S3        29.95S
WINCHESTER     SUNNY     66  59  77 CALM      29.93F
FRONT ROYAL*   SUNNY     64  59  82 CALM      29.93S
LURAY*         SUNNY     64  61  88 CALM      29.94F
$$

VAZ048-049-060>072-079>083-301500-
CENTRAL AND SOUTH CENTRAL VIRGINIA...AND NORTH CENTRAL NORTH CAROLINA

CITY           SKY/WX    TMP DP  RH WIND       PRES   REMARKS
RICHMOND       CLOUDY    66  62  87 CALM      29.93F
CHESTERFIELD*  CLOUDY    64  54  68 CALM      29.96R
PETERSBURG*    CLOUDY    65  62  87 CALM      29.94S
HANOVER        CLOUDY    67  62  84 CALM      29.95S
TAPPAHANNOCK*  CLOUDY    65  63  93 CALM      29.95S
CHARLOTTSVILLE CLOUDY    63  62  97 CALM      29.94S FOG
ORANGE*        CLOUDY    63  61  94 CALM      29.96R
LOUISA*        CLOUDY    64  63  94 CALM      29.93S
FARMVILLE*     CLOUDY    64  64 100 SW3       29.93R
CREWE*         CLOUDY    66  61  85 CALM      29.94R
FORT PICKETT*  CLOUDY    65  62  90 CALM      29.94S
LUNENBURG*     CLOUDY    65  63  94 CALM      29.94S
SOUTH HILL*    CLOUDY    66  66 100 CALM      29.99S
LAWRENCEVILLE* CLOUDY    64  63  94 CALM      29.93S
ROANOKE RAPIDS CLOUDY    63  63 100 CALM      29.94S FOG
RALEIGH        CLOUDY    65  61  87 NE3       29.95F FOG
$$

VAZ088>098-301500-
SOUTHEAST VIRGINIA

CITY           SKY/WX    TMP DP  RH WIND       PRES   REMARKS
NORFOLK        MOSUNNY   71  63  75 N6        29.92S
VIRGINIA BEACH MOSUNNY   75  65  70 N3        29.92R
NORFOLK NAVAL  MOSUNNY   72  61  68 N5        29.93F
WEST POINT*    CLOUDY    67  64  89 CALM      29.95S
NEWPORT NEWS   CLOUDY    71  65  81 CALM      29.93S
LANGLEY AFB    MOSUNNY   68  68 100 N3        29.93F
FORT EUSTIS    PTSUNNY   66  66 100 NW6       29.92S
WILLIAMSBURG*  SUNNY     66  66 100 W3        29.94S
HR EXEC AP*    MOSUNNY   70  64  83 N3        29.94F
FRANKLIN*      CLOUDY    64 N/A N/A CALM      29.93F VSB 1/4
WAKEFIELD      CLOUDY    65  62  90 CALM      29.94S FOG
$$

VAZ020-022-025-037-045-301500-
WEST CENTRAL AND SOUTHWEST VIRGINIA

CITY           SKY/WX    TMP DP  RH WIND       PRES   REMARKS
STAUNTON*      FOG       58  57  96 CALM      29.97S VSB 3/4
HOT SPRINGS VA SUNNY     60  46  59 NW3       30.05S
LYNCHBURG      PTSUNNY   64  62  93 CALM      29.96R
DANVILLE       CLOUDY    65  61  87 CALM      29.95S
SOUTH BOSTON*  NOT AVBL
MARTINSVILLE   CLOUDY    64  63  96 CALM      29.99R
ROANOKE        MOSUNNY   64  58  80 NW3       29.98S
BLACKSBURG     FOG       59  59 100 CALM      30.02S VSB 1/4
DUBLIN*        CLOUDY    59  59 100 CALM      30.02S FOG
MARION*        SUNNY     64  60  87 SW9       30.05S
HILLSVILLE*    PTSUNNY   58  58  98 CALM      30.03R FOG
RICHLANDS*     SUNNY     65  60  81 CALM      30.03S
WISE*          SUNNY     64  63  94 SW5       30.04S
ABINGDON*      SUNNY     65  61  89 CALM      30.02S
$$

MDZ021>025-VAZ099-100-301500-
SOUTHERN MARYLAND AND THE DELMARVA PENINSULA

CITY           SKY/WX    TMP DP  RH WIND       PRES   REMARKS
PATUXENT RIVER MOSUNNY   67  63  87 VRB3      29.93F
BAY BRIDGE APT   N/A     68  63  83 W3        29.94S
LEONARDTOWN    CLOUDY    64  61  88 CALM      29.95F
DOVER          PTSUNNY   69  60  75 E5        29.92F
GEORGETOWN     MOSUNNY   70  57  63 E10       29.95S
EASTON         MOSUNNY   72  68  88 CALM      29.97F
CAMBRIDGE      SUNNY     72  64  78 SE5       29.93F
SALISBURY      CLOUDY    69  60  73 CALM      29.94S
OCEAN CITY     CLOUDY    71  62  73 N8        29.94S
WALLOPS ISLAND CLOUDY    69  62  78 N3        29.94S
ACCOMACK*      CLOUDY    68  63  83 CALM      29.94R
$$

NCZ012>017-030>032-301500-
EASTERN NORTH CAROLINA

CITY           SKY/WX    TMP DP  RH WIND       PRES   REMARKS
ELIZABETH CITY SUNNY     72  65  78 N8        29.92S
AHOSKIE*       FOG       62  62  98 NW3       29.94S VSB 1/2
EDENTON*       SUNNY     71  64  80 N6        29.92S
CURRITUCK*     MOSUNNY   72  65  78 N6        29.93R
KILL DEVIL HLS SUNNY     73  60  62 N5        29.90R
MANTEO         SUNNY     73  59  61 NE8       29.91R
CAPE HATTERAS  CLOUDY    68  65  90 NE8       29.88F
TARBORO*       FOG       64  63  97 N3        29.94F VSB 1/2
GOLDSBORO      SUNNY     70  66  88 CALM      29.91S
WASHINGTON     SUNNY     70  63  79 NE3       29.93S
GREENVILLE     SUNNY     68  64  88 CALM      29.95S
NEW BERN       PTSUNNY   71  65  81 N8        29.93S
WILMINGTON     SUNNY     70  64  81 NE9       29.91R
$$

VAZ048-301500-
ELSEWHERE

CITY           SKY/WX    TMP DP  RH WIND       PRES   REMARKS
HARRISBURG PA  FOG       62  61  96 SE6       29.94S VSB 3/4
BALTIMORE      PTSUNNY   67  61  81 S5        29.93F
ANNAPOLIS      PTSUNNY   69  62  78 S3        29.93F
ANDREWS AFB    CLOUDY    64  64  99 S3        29.94S
WILMINGTON DE  SUNNY     70  61  73 CALM      29.95S
PHILADELPHIA   PTSUNNY   71  57  61 CALM      29.95S
WILDWOOD NJ*   PTSUNNY   68  57  68 E6        29.96S
ATLANTIC CITY  PTSUNNY   69  59  70 E6        29.95F
HENDERSON NC   CLOUDY    63  61  93 CALM      29.95S FOG
GREENSBORO     CLOUDY    62  62 100 NW3       29.95S FOG
ROCKY MOUNT    FOG       64  63  96 N5        29.94S VSB 1
FAYETTEVILLE   FOG       64  63  96 N5        29.93S VSB 1
CHARLOTTE      CLOUDY    63  61  94 CALM      29.97S FOG
$$

VAZ100-301500-
MARINE

STATION/POSITION TIME  TEMP    WIND        PRES    WAVE   SWELL
                       AIR SEA DIR/SP/G            HT/PER HT/PER
                 (UTC) (F)     (DEG/KT/KT) (MB)    (FT/S) (FT/S)
44066 TX TWR #4  1400   67 69   20/  8/  8 1013.8F   2/ 8   2/ 8
CAPE MAY NJ      1400   67 73   70/  4/  6 1013.5S
LEWES DE         1400   69 70   80/  5/  6 1013.5F
15NM E FENWICK I 1400   69 70              1013.3S   2/ 8
OCEAN-CITY-INLET 1400   69 71   10/  6/  7 1013.3S
WACHAPREAGUE VA  1400   69 72   20/  5/  7 1013.6S
THOMAS POINT MD  1400   66 71  230/  5/  5 1014.7F
GOOSES REEF MD   1400   67     290/  4/  6 1014.3F
COVE POINT MD    1400   66      50/  1/  2 1013.7S
SOLOMONS ISLAND  1400      72                N/A
BISHOPS HEAD MD  1400   70 70   50/  4/  6 1013.2S
PINEY POINT MD   1400          280/  3/  3   N/A
POTOMAC MD       1400   66     290/  6/  6 1013.0S
CAMBRIDGE MD     1400   67 71   90/  4/  5 1013.4S
LEWISETTA VA     1400   64 71  310/  5/  6 1013.3S
RAPPAHANNOCK LGT 1400          310/  5/  6 1014.0S
STINGRAY PT      1400   67     330/  6/  6   N/A
YORK RVR RNG VA  1400   66     350/  5/  6 1012.9F
YORKTOWN VA      1400   65 72  320/  4/  5 1013.1F
JAMESTOWN VA     1400   64      10/  2/  4   N/A
DOMINION TERM VA 1400   67     310/  6/  8 1013.4S
KIPTOPEKE VA     1400      75  330/  6/  7   N/A
CHES BAY BRIDGE  1400   69 72  360/  5/  7 1012.8S
CHESAPEAKE LGHT  1300   70      10/  6/  7 1013.6R
WILLOUBY STN VA  1400   69     360/  3/  4 1012.1S
S CRANEY ISL VA  1400          330/  4/  6 1013.0S
CAPE HENRY BUOY  1400      73                N/A     2/14   2/14
1ST LANDING BUOY 1400   70     360/  6/  6 1013.1R
CAPE CHARLES BUO 1400      72                N/A     2/ 8   2/ 8
OFFSHORE WE BUOY 1400      73                N/A     2/14   2/14
64NM E OF VA BCH 1400   70 71   40/  8/  8 1012.2R   2/ 7   2/ 7
DUCK PIER NC     1400   70 72   20/ 10/ 11 1012.0S
44100 DUCK FRF   1400      72                N/A     2/ 8
44056 DUCK FRF   1400                        N/A     2/ 7
OREGON INLET NC  1400   71 73   20/ 10/ 12 1012.3R
HATTERAS NC      1400   71 73   40/  8/ 11 1012.5S
DIAMOND SHLS NC  1400   73     360/ 16/ 19 1011.4F   4/ 6   2/ 8
CAPE LOOKOUT NC  1300   70      30/ 13/ 16 1011.9F
$$



USA.gov is the U.S. government's official web portal to all federal, state and local government web resources and services.